[[{"header":{"parameterUnit":"m.s-1","parameterCategory":1,"la1":30.2991,"la2":30.254,"lo1":-89.0895,"lo2":-89.0444,"dy":0.0017,"dx":0.0017,"nx":28,"ny":28,"refTime":"2024-10-15T09:00:00:Z","depth":0,"parameterNumber":2,"parameterNumberName":"U-component_of_WINDS"},"data":[0,0,0,0,0,0,0,0,0,0,0,0,0,0,0,0,0,0,0,0,0,0,0,0,0,0,0,0,0,0,0,0,0,0,0,0,0,0,0,0,0,0,0,0,0,0,0,0,0,0,0,0,0,0,0,0,0,0,-2.9494,-2.9494,0,-2.9513,-2.9513,-2.9513,-2.9457,-2.9455,-2.9454,-2.9452,-2.9471,-2.9473,-2.9475,0,0,0,0,0,0,0,0,0,0,0,0,0,-2.9408,-2.941,-2.9494,-2.9494,-2.9494,-2.9513,-2.9513,-2.9513,-2.9457,-2.9455,-2.9453,-2.9451,-2.947,-2.9473,-2.9475,0,0,0,0,0,0,0,0,0,0,0,0,0,-2.9438,-2.9411,-2.9494,-2.9469,-2.9467,-2.9513,-2.9513,-2.9514,-2.9458,-2.9455,-2.9453,-2.945,-2.947,-2.9473,-2.9476,-2.9547,0,0,-2.9485,-2.9487,0,0,0,0,0,0,0,0,-2.9436,-2.9441,-2.9472,-2.9471,-2.9468,-2.948,-2.949,-2.9525,-2.9459,-2.9461,-2.9452,-2.9449,-2.9476,-2.9479,-2.9488,-2.9548,-2.9549,-2.9486,-2.9488,-2.9489,-2.949,0,0,0,0,0,0,0,-2.9434,-2.944,-2.9501,-2.9473,-2.947,-2.9456,-2.9458,-2.9496,-2.9483,-2.9461,-2.9457,-2.946,-2.9475,-2.9485,-2.9488,-2.9549,-2.9486,-2.9488,-2.949,-2.9492,-2.9667,-2.967,0,0,0,0,0,0,-2.9436,-2.9439,-2.9501,-2.9502,-2.9446,-2.946,-2.9461,-2.9479,-2.9482,-2.948,-2.9462,-2.9457,-2.9481,-2.9484,-2.9488,-2.9571,-2.9489,-2.9492,-2.9494,-2.9665,-2.9668,-2.9671,0,0,0,0,0,0,-2.9434,-2.9442,-2.95,-2.9469,-2.9476,-2.9464,-2.9484,-2.9481,-2.9491,-2.9483,-2.9481,-2.9475,-2.9479,-2.9484,-2.9533,-2.9571,-2.9493,-2.9496,-2.9661,-2.9666,-2.9669,-2.9737,0,0,0,0,0,0,-2.9432,-2.9442,-2.9469,-2.947,-2.9478,-2.9545,-2.9487,-2.9483,-2.9497,-2.949,-2.9495,-2.9493,-2.9477,-2.9528,-2.9536,-2.9574,-2.9499,-2.9658,-2.9663,-2.9668,-2.9732,-2.9743,-2.9753,0,0,0,0,0,-2.9429,-2.9487,-2.947,-2.9478,-2.9511,-2.9547,-2.9551,-2.9532,-2.95,-2.9527,-2.9522,-2.9493,-2.9566,-2.9534,-2.9542,-2.9581,-2.9655,-2.9662,-2.9668,-2.9727,-2.9741,-2.9753,0,0,0,0,0,0,-2.949,-2.9487,-2.9468,-2.9529,-2.9539,-2.9537,-2.9571,-2.9548,-2.9566,-2.956,-2.9535,-2.9536,-2.9589,-2.959,-2.9555,-2.965,-2.9605,-2.9613,-2.9647,-2.9661,-2.9671,-2.9669,-2.9501,0,0,0,0,0,-2.9511,-2.954,-2.9536,-2.959,-2.9596,-2.9583,-2.9597,-2.9582,-2.9591,-2.9594,-2.9593,-2.9603,-2.9627,-2.9644,-2.9667,-2.9732,-2.9731,-2.9763,-2.9774,-2.9783,-2.979,-2.9823,-2.9836,-2.9691,-2.9691,-2.9691,0,0,-2.9554,-2.9556,-2.9576,-2.9602,-2.9608,-2.9638,-2.9586,-2.9621,-2.9643,-2.9599,-2.9645,-2.9645,-2.9654,-2.9711,-2.9736,-2.9713,-2.983,-2.9791,-2.9798,-2.98,-2.9831,-2.9844,-2.9857,-2.9696,-2.9695,-2.9694,0,0,-2.9647,-2.9652,-2.9697,-2.9703,-2.9713,-2.9704,-2.9715,-2.9717,-2.9715,-2.976,-2.9728,-2.9754,-2.9797,-2.9805,-2.9814,-2.991,-2.9884,-2.9918,-2.9974,-3.0007,-3.0018,-3.0028,-3.0061,-3.0073,-2.9925,-2.9926,-2.9926,0,-2.9699,-2.9744,-2.9723,-2.9759,-2.9771,-2.9734,-2.9778,-2.9786,-2.9802,-2.9811,-2.9786,-2.9839,-2.9843,-2.99,-2.9923,-2.9933,-2.9944,-2.9917,-3.0019,-3.0028,-3.0037,-3.0068,-3.0081,-2.993,-2.9929,-2.9929,-2.9928,0,-2.9806,-2.9838,-2.9873,-2.9889,-2.9906,-2.9946,-2.9931,-2.995,-2.9933,-2.9926,-2.9973,-2.9976,-2.9998,-3.001,-2.9994,-3.0066,-3.0051,-3.0023,-2.9977,-3.0056,-3.0084,-3.0096,-2.9935,-2.9934,-2.9933,-2.9932,0,0,-2.9938,-2.9942,-2.9955,-2.9962,-2.9969,-2.9993,-3.0032,-3.0053,-3.0069,-3.0082,-3.0113,-3.0151,-3.0124,-3.0135,-3.012,-3.0149,-3.0223,-3.0116,-3.0116,-3.0135,-3.03,-3.032,-3.0334,-3.0206,-3.0208,-3.021,-3.0298,0,-3.0028,-3.0094,-3.0077,-3.0142,-3.0171,-3.0135,-3.0169,-3.0177,-3.0172,-3.0195,-3.0189,-3.0216,-3.018,-3.0186,-3.0213,-3.0208,-3.0255,-3.0202,-3.0233,-3.0235,-3.0231,-3.0349,-3.0371,-3.0454,-3.031,-3.0312,-3.0313,0,-3.0142,-3.0159,-3.0228,-3.023,-3.0241,-3.0272,-3.0289,-3.0312,-3.032,-3.0315,-3.0327,-3.0305,-3.0343,-3.0298,-3.0349,-3.0312,-3.0325,-3.0324,-3.0327,-3.0328,-3.0277,-3.0352,-3.048,-3.0492,-3.0331,-3.0329,-3.0328,0,-3.0229,-3.027,-3.0315,-3.0322,-3.0326,-3.0348,-3.0351,-3.0356,-3.037,-3.0386,-3.0395,-3.0415,-3.0425,-3.0441,-3.0425,-3.0395,-3.0478,-3.0432,-3.0473,-3.0474,-3.0491,-3.049,-3.0622,-3.0502,-3.0502,-3.0502,-3.0501,0,-3.0331,-3.0374,-3.0354,-3.0382,-3.0429,-3.0409,-3.0455,-3.0454,-3.0459,-3.0486,-3.0457,-3.0483,-3.0461,-3.0485,-3.0473,-3.0516,-3.0522,-3.0517,-3.0513,-3.0519,-3.0519,-3.0525,-3.0518,-3.0505,-3.0504,-3.0504,-3.0503,0,-3.0436,-3.0424,-3.0472,-3.0472,-3.0473,-3.0507,-3.0507,-3.0532,-3.0525,-3.056,-3.0566,-3.0556,-3.0582,-3.0568,-3.0596,-3.0587,-3.0642,-3.0632,-3.064,-3.0636,-3.0677,-3.0673,-3.0816,-3.0833,-3.0704,-3.0706,-3.0707,0,-3.0501,-3.0533,-3.0536,-3.0552,-3.0557,-3.0583,-3.0597,-3.0578,-3.0593,-3.0605,-3.0629,-3.0653,-3.0671,-3.0714,-3.0708,-3.0729,-3.0717,-3.0766,-3.072,-3.0724,-3.0716,-3.0713,-3.0716,-3.0775,-3.0776,-3.0777,-3.0778,0,-3.0616,-3.0609,-3.063,-3.065,-3.0667,-3.0682,-3.0693,-3.0708,-3.0689,-3.0708,-3.0735,-3.0749,-3.0776,-3.08,-3.0818,-3.082,-3.0796,-3.0793,-3.0804,-3.0809,-3.0811,-3.0808,-3.0663,-3.079,-3.0789,-3.0788,-3.0787,-3.0787,-3.0702,-3.0728,-3.0734,-3.0759,-3.0766,-3.0778,-3.0801,-3.0798,-3.0819,-3.084,-3.0828,-3.0859,-3.0866,-3.0887,-3.0892,-3.0916,-3.0896,-3.0911,-3.0915,-3.0918,-3.0923,-3.0809,-3.0919,-3.0919,-3.0918,-3.0918,-3.0918,0,-3.0814,-3.0817,-3.0839,-3.0857,-3.0876,-3.0853,-3.0865,-3.0882,-3.0909,-3.0918,-3.0936,-3.0966,-3.0989,-3.0985,-3.1006,-3.1025,-3.1015,-3.1031,-3.1028,-3.1029,-3.094,-3.0929,-3.1039,-3.1039,-3.1039,-3.1039,-3.1039,-3.1039,-3.0875,-3.0918,-3.0911,-3.0957,-3.0959,-3.0989,-3.0998,-3.1008,-3.1015,-3.105,-3.1068,-3.1066,-3.107,-3.109,-3.111,-3.1108,-3.1116,-3.1136,-3.113,-3.1047,-3.1035,-3.1024,-3.1012,-3.1139,-3.1139,-3.1216,-3.1217,-3.1218]},{"header":{"parameterUnit":"m.s-1","parameterCategory":1,"la1":30.2991,"la2":30.254,"lo1":-89.0895,"lo2":-89.0444,"dy":0.0017,"dx":0.0017,"nx":28,"ny":28,"refTime":"2024-10-15T09:00:00:Z","depth":0,"parameterNumber":3,"parameterNumberName":"V-component_of_WINDS"},"data":[0,0,0,0,0,0,0,0,0,0,0,0,0,0,0,0,0,0,0,0,0,0,0,0,0,0,0,0,0,0,0,0,0,0,0,0,0,0,0,0,0,0,0,0,0,0,0,0,0,0,0,0,0,0,0,0,0,0,-0.462,-0.462,0,-0.4617,-0.4616,-0.4616,-0.4606,-0.4605,-0.4605,-0.4605,-0.4603,-0.4604,-0.4604,0,0,0,0,0,0,0,0,0,0,0,0,0,-0.4616,-0.4617,-0.462,-0.462,-0.462,-0.4617,-0.4616,-0.4616,-0.4606,-0.4605,-0.4605,-0.4605,-0.4603,-0.4604,-0.4604,0,0,0,0,0,0,0,0,0,0,0,0,0,-0.4616,-0.4617,-0.462,-0.4614,-0.4613,-0.4617,-0.4616,-0.4616,-0.4606,-0.4605,-0.4605,-0.4605,-0.4603,-0.4604,-0.4604,-0.4613,0,0,-0.4605,-0.4605,0,0,0,0,0,0,0,0,-0.4616,-0.4616,-0.4615,-0.4614,-0.4614,-0.4611,-0.4615,-0.4615,-0.4606,-0.4609,-0.4605,-0.4605,-0.4606,-0.4606,-0.4607,-0.4613,-0.4613,-0.4605,-0.4605,-0.4605,-0.4605,0,0,0,0,0,0,0,-0.4616,-0.4616,-0.4619,-0.4615,-0.4614,-0.4611,-0.4611,-0.4615,-0.461,-0.4609,-0.4608,-0.4607,-0.4606,-0.4606,-0.4607,-0.4613,-0.4605,-0.4605,-0.4605,-0.4605,-0.4623,-0.4623,0,0,0,0,0,0,-0.4617,-0.4616,-0.4619,-0.4619,-0.4614,-0.4612,-0.4611,-0.4612,-0.461,-0.4609,-0.4608,-0.4607,-0.4606,-0.4606,-0.4606,-0.4615,-0.4605,-0.4605,-0.4605,-0.4623,-0.4623,-0.4623,0,0,0,0,0,0,-0.4617,-0.4617,-0.4619,-0.4617,-0.4617,-0.4612,-0.4614,-0.4613,-0.4613,-0.4609,-0.4608,-0.4609,-0.4606,-0.4606,-0.461,-0.4615,-0.4605,-0.4606,-0.4622,-0.4623,-0.4623,-0.4634,0,0,0,0,0,0,-0.4617,-0.4617,-0.4621,-0.4617,-0.4617,-0.4623,-0.4614,-0.4613,-0.4613,-0.4612,-0.461,-0.4609,-0.4606,-0.461,-0.4611,-0.4615,-0.4606,-0.4622,-0.4622,-0.4623,-0.4633,-0.4634,-0.4636,0,0,0,0,0,-0.4617,-0.4625,-0.4621,-0.4622,-0.4622,-0.4624,-0.4624,-0.4619,-0.4614,-0.4617,-0.4614,-0.4609,-0.4614,-0.4611,-0.4611,-0.4616,-0.4622,-0.4622,-0.4623,-0.4632,-0.4634,-0.4636,0,0,0,0,0,0,-0.4631,-0.4625,-0.462,-0.4628,-0.4626,-0.4622,-0.4626,-0.4621,-0.4621,-0.4621,-0.4615,-0.4614,-0.4619,-0.4618,-0.4614,-0.4623,-0.4617,-0.4618,-0.4624,-0.4625,-0.4627,-0.4627,-0.4606,0,0,0,0,0,-0.4635,-0.4637,-0.4631,-0.4638,-0.4637,-0.4632,-0.4633,-0.4628,-0.4627,-0.4626,-0.4624,-0.4622,-0.4623,-0.4624,-0.4625,-0.4632,-0.4631,-0.4635,-0.4637,-0.4638,-0.4639,-0.464,-0.4642,-0.4626,-0.4626,-0.4626,0,0,-0.4644,-0.464,-0.4642,-0.4641,-0.4639,-0.4641,-0.4632,-0.4634,-0.4635,-0.4627,-0.463,-0.4628,-0.4626,-0.4631,-0.4634,-0.463,-0.4642,-0.4639,-0.464,-0.464,-0.4641,-0.4643,-0.4644,-0.4626,-0.4626,-0.4626,0,0,-0.466,-0.4658,-0.4662,-0.466,-0.4656,-0.4652,-0.4653,-0.4649,-0.4646,-0.465,-0.4642,-0.4643,-0.4646,-0.4644,-0.4643,-0.4654,-0.465,-0.4655,-0.4662,-0.4664,-0.4665,-0.4666,-0.4669,-0.467,-0.4656,-0.4656,-0.4656,0,-0.4671,-0.4673,-0.4666,-0.4668,-0.4667,-0.4657,-0.4661,-0.4659,-0.4657,-0.4656,-0.4653,-0.4653,-0.4651,-0.4655,-0.4657,-0.4657,-0.4657,-0.4655,-0.4665,-0.4666,-0.4667,-0.467,-0.4671,-0.4656,-0.4656,-0.4656,-0.4656,0,-0.4686,-0.4687,-0.4691,-0.4687,-0.4686,-0.469,-0.4682,-0.4682,-0.4677,-0.4673,-0.4675,-0.4672,-0.4671,-0.4671,-0.4667,-0.4673,-0.4671,-0.4666,-0.466,-0.4669,-0.4672,-0.4673,-0.4657,-0.4657,-0.4657,-0.4656,0,0,-0.4714,-0.4703,-0.4704,-0.4701,-0.4695,-0.4696,-0.4698,-0.4695,-0.4695,-0.4693,-0.4693,-0.4694,-0.4688,-0.4687,-0.4682,-0.4684,-0.4691,-0.4679,-0.4678,-0.468,-0.4695,-0.4699,-0.47,-0.4687,-0.4687,-0.4687,-0.4695,0,-0.4728,-0.473,-0.4722,-0.4726,-0.4726,-0.4716,-0.4717,-0.4713,-0.4708,-0.4707,-0.4702,-0.4702,-0.4695,-0.4694,-0.4695,-0.469,-0.4694,-0.4689,-0.4687,-0.4687,-0.4688,-0.4701,-0.4706,-0.4713,-0.4696,-0.4696,-0.4696,0,-0.4746,-0.4742,-0.4746,-0.4737,-0.4737,-0.4738,-0.4734,-0.4733,-0.4728,-0.4724,-0.4721,-0.4714,-0.4714,-0.4708,-0.4707,-0.4704,-0.4702,-0.4699,-0.4699,-0.4699,-0.4693,-0.4701,-0.4716,-0.4717,-0.4698,-0.4698,-0.4698,0,-0.4764,-0.4761,-0.4762,-0.476,-0.475,-0.475,-0.4746,-0.474,-0.4738,-0.4734,-0.4732,-0.4729,-0.4727,-0.4724,-0.4716,-0.4712,-0.4716,-0.4709,-0.4712,-0.4712,-0.4714,-0.4714,-0.4728,-0.4713,-0.4713,-0.4713,-0.4713,0,-0.4781,-0.4784,-0.4769,-0.477,-0.4772,-0.4762,-0.4764,-0.4758,-0.4752,-0.4751,-0.4742,-0.4741,-0.4731,-0.4728,-0.4722,-0.4722,-0.4721,-0.4717,-0.4716,-0.4718,-0.4719,-0.4718,-0.4717,-0.4713,-0.4713,-0.4713,-0.4713,0,-0.4803,-0.4793,-0.4794,-0.4783,-0.478,-0.4782,-0.4772,-0.4772,-0.4765,-0.4764,-0.4763,-0.4753,-0.4749,-0.474,-0.4735,-0.4731,-0.4732,-0.4729,-0.4733,-0.4732,-0.4735,-0.4735,-0.4749,-0.475,-0.4735,-0.4735,-0.4735,0,-0.4814,-0.4816,-0.4804,-0.4802,-0.4798,-0.4795,-0.4792,-0.4782,-0.4779,-0.4771,-0.4771,-0.4766,-0.4762,-0.4757,-0.4749,-0.4744,-0.474,-0.4746,-0.474,-0.4741,-0.4739,-0.4739,-0.4739,-0.4747,-0.4748,-0.4748,-0.4748,0,-0.4836,-0.483,-0.4826,-0.482,-0.4816,-0.4811,-0.4806,-0.4804,-0.4792,-0.4789,-0.4785,-0.4781,-0.4774,-0.4769,-0.4762,-0.4757,-0.475,-0.4749,-0.475,-0.4752,-0.4755,-0.4752,-0.4736,-0.4749,-0.4749,-0.4749,-0.4749,-0.4749,-0.4852,-0.4852,-0.4843,-0.4838,-0.4832,-0.4826,-0.4824,-0.4816,-0.4812,-0.4805,-0.4799,-0.4794,-0.4786,-0.4776,-0.4771,-0.4767,-0.4763,-0.4764,-0.4764,-0.4765,-0.4765,-0.4755,-0.4766,-0.4765,-0.4765,-0.4765,-0.4765,0,-0.4872,-0.4865,-0.486,-0.4851,-0.4847,-0.4839,-0.4831,-0.4828,-0.4824,-0.4817,-0.4812,-0.4805,-0.4799,-0.479,-0.4783,-0.4781,-0.4778,-0.478,-0.478,-0.4778,-0.4769,-0.4769,-0.4783,-0.4783,-0.4783,-0.4783,-0.4783,-0.4783,-0.4882,-0.488,-0.4873,-0.4867,-0.486,-0.4855,-0.4851,-0.4845,-0.4838,-0.4831,-0.4826,-0.4819,-0.481,-0.4802,-0.4795,-0.4793,-0.479,-0.4793,-0.479,-0.4781,-0.478,-0.4778,-0.4778,-0.4793,-0.4793,-0.4799,-0.4799,-0.4799]}]]